Weather History for Athens, OH

Change the Weather History Date:

Saturday, January 19, 2013

  Actual Average (KPKB) Record (KPKB)
Temperature  
Mean Temperature 43 °F 31 °F  
Max Temperature 54 °F 40 °F 71 °F (1907)
Min Temperature 32 °F 23 °F -24 °F (1994)
Degree Days  
Heating Degree Days 22 34  
Month to date heating degree days 639  
Since 1 July heating degree days 2549  
Cooling Degree Days 0 0  
Month to date cooling degree days 0  
Year to date cooling degree days 0  
Moisture  
Dew Point 23 °F    
Average Humidity 48    
Maximum Humidity 73    
Minimum Humidity 29    
Precipitation  
Precipitation 0.00 in 0.09 in 0.34 in (2000)
Month to date precipitation 1.79  
Year to date precipitation 1.79  
Sea Level Pressure  
Sea Level Pressure 30.11 in    
Wind  
Wind Speed 9 mph (SSW)    
Max Wind Speed 16 mph    
Max Gust Speed 24 mph    
Visibility 10 miles    
Events      
T = Trace of Precipitation, MM = Missing Value Source: NWS Daily Summary

Daily Weather History Graph

Daily Weather History Graph

Search for Another Location

Airport:

Trip Planner

Search our weather history database for the weather conditions in past years. The results will help you decide how hot, cold, wet, or windy it might be!

Date:

Astronomy

Jan. 19, 2013 Rise Set
Actual Time 7:44 AM EST 5:34 PM EST
Civil Twilight 7:15 AM EST 6:04 PM EST
Nautical Twilight 6:43 AM EST 6:36 PM EST
Astronomical Twilight 6:11 AM EST 7:08 PM EST
Moon 12:00 PM EST (1/19) 1:18 AM EST (1/19)
Length of Visible Light 10h 48m
Length of Day
9h 50m
First Quarter, 57% of the Moon is Illuminated
Jan 19
First Quarter
Jan 26
Full
Feb 3
Last Quarter
Feb 10
New
Feb 17
First Quarter

Hourly Weather History & Observations

Time (EST) Temp. Windchill Dew Point Humidity Pressure Visibility Wind Dir Wind Speed Gust Speed Precip Events Conditions
12:15 AM 32.0 °F 24.8 °F 23.9 °F 72% 30.28 in 10.0 mi South 8.1 mph - N/A   Clear
12:35 AM 32.0 °F 25.6 °F 24.1 °F 73% 30.27 in 10.0 mi South 6.9 mph - N/A   Clear
12:55 AM 32.4 °F 26.0 °F 24.4 °F 73% 30.27 in 10.0 mi South 6.9 mph - N/A   Clear
1:15 AM 32.5 °F 24.2 °F 24.3 °F 72% 30.26 in 10.0 mi SSW 10.4 mph - N/A   Clear
1:35 AM 32.4 °F 25.3 °F 24.3 °F 72% 30.27 in 10.0 mi SSW 8.1 mph - N/A   Clear
1:55 AM 32.4 °F 26.0 °F 24.1 °F 72% 30.27 in 10.0 mi SSW 6.9 mph - N/A   Clear
2:15 AM 32.2 °F 25.8 °F 24.1 °F 72% 30.27 in 10.0 mi SSW 6.9 mph - N/A   Clear
2:35 AM 32.4 °F 25.3 °F 23.9 °F 71% 30.26 in 10.0 mi SSW 8.1 mph - N/A   Clear
2:55 AM 32.0 °F 24.2 °F 23.9 °F 72% 30.26 in 10.0 mi South 9.2 mph - N/A   Clear
3:15 AM 32.2 °F 25.8 °F 23.5 °F 70% 30.25 in 10.0 mi SSW 6.9 mph - N/A   Clear
3:35 AM 32.0 °F 25.6 °F 23.0 °F 69% 30.26 in 10.0 mi South 6.9 mph - N/A   Clear
3:55 AM 32.2 °F 25.8 °F 22.6 °F 68% 30.25 in 10.0 mi South 6.9 mph - N/A   Clear
4:15 AM 32.5 °F 24.8 °F 22.5 °F 66% 30.24 in 10.0 mi South 9.2 mph - N/A   Clear
4:35 AM 32.9 °F 25.3 °F 21.9 °F 64% 30.23 in 10.0 mi SSW 9.2 mph - N/A   Clear
4:55 AM 33.1 °F 24.9 °F 21.7 °F 63% 30.22 in 10.0 mi SSW 10.4 mph 16.1 mph N/A   Clear
5:15 AM 33.8 °F 27.0 °F 21.6 °F 61% 30.23 in 10.0 mi SSW 8.1 mph - N/A   Clear
5:35 AM 33.6 °F 24.6 °F 21.6 °F 61% 30.22 in 10.0 mi SSW 12.7 mph 16.1 mph N/A   Clear
5:55 AM 33.8 °F 26.4 °F 21.2 °F 60% 30.23 in 10.0 mi SSW 9.2 mph 16.1 mph N/A   Clear
6:15 AM 33.1 °F 26.1 °F 21.2 °F 62% 30.23 in 10.0 mi SSW 8.1 mph - N/A   Scattered Clouds
6:35 AM 32.9 °F 25.9 °F 21.2 °F 62% 30.22 in 10.0 mi SSW 8.1 mph - N/A   Clear
6:55 AM 32.5 °F 25.5 °F 21.2 °F 63% 30.22 in 10.0 mi SSW 8.1 mph - N/A   Clear
8:15 AM 33.4 °F 26.6 °F 21.2 °F 61% 30.23 in 10.0 mi SSW 8.1 mph - N/A   Clear
8:55 AM 36.1 °F 28.7 °F 21.2 °F 55% 30.23 in 10.0 mi South 10.4 mph - N/A   Clear
9:15 AM 37.6 °F 31.6 °F 21.2 °F 52% 30.24 in 10.0 mi SSW 8.1 mph - N/A   Clear
9:35 AM 38.8 °F 32.1 °F 21.2 °F 49% 30.24 in 10.0 mi SSW 10.4 mph - N/A   Clear
10:35 AM 42.8 °F 37.5 °F 23.0 °F 46% 30.23 in 10.0 mi SSW 9.2 mph - N/A   Clear
10:55 AM 44.6 °F 39.2 °F 22.8 °F 42% 30.22 in 10.0 mi SSW 10.4 mph 18.4 mph N/A   Clear
11:15 AM 45.9 °F 39.7 °F 23.4 °F 41% 30.21 in 10.0 mi SW 13.8 mph 23.0 mph N/A   Clear
11:35 AM 46.8 °F - 23.0 °F 39% 30.19 in 10.0 mi SW 11.5 mph 21.9 mph N/A   Clear
12:15 PM 48.6 °F - 24.1 °F 38% 30.16 in 10.0 mi SSW 11.5 mph 20.7 mph N/A   Clear
12:35 PM 49.5 °F - 23.7 °F 37% 30.14 in 10.0 mi SW 15.0 mph 21.9 mph N/A   Clear
12:55 PM 50.4 °F - 23.4 °F 35% 30.12 in 10.0 mi SSW 15.0 mph 21.9 mph N/A   Clear
1:15 PM 51.6 °F - 23.7 °F 34% 30.10 in 10.0 mi SW 13.8 mph 20.7 mph N/A   Clear
1:35 PM 52.3 °F - 24.3 °F 34% 30.09 in 10.0 mi SSW 11.5 mph 21.9 mph N/A   Clear
1:55 PM 52.7 °F - 23.7 °F 32% 30.08 in 10.0 mi SW 10.4 mph 20.7 mph N/A   Clear
2:35 PM 53.6 °F - 23.2 °F 31% 30.05 in 10.0 mi SSW 16.1 mph 24.2 mph N/A   Clear
2:55 PM 54.1 °F - 22.3 °F 29% 30.04 in 10.0 mi SSW 13.8 mph 21.9 mph N/A   Clear
3:15 PM 54.7 °F - 23.5 °F 30% 30.03 in 10.0 mi SSW 11.5 mph 18.4 mph N/A   Clear
3:35 PM 54.0 °F - 23.2 °F 30% 30.02 in 10.0 mi SSW 8.1 mph 20.7 mph N/A   Clear
3:55 PM 54.0 °F - 23.2 °F 30% 30.01 in 10.0 mi SSW 13.8 mph 20.7 mph N/A   Clear
4:15 PM 53.6 °F - 23.5 °F 31% 30.01 in 10.0 mi SSW 8.1 mph 18.4 mph N/A   Clear
4:35 PM 52.9 °F - 22.6 °F 31% 29.99 in 10.0 mi SSW 11.5 mph 19.6 mph N/A   Clear
4:55 PM 52.5 °F - 22.5 °F 31% 29.99 in 10.0 mi SSW 12.7 mph 20.7 mph N/A   Clear
5:15 PM 51.4 °F - 22.1 °F 32% 29.99 in 10.0 mi SSW 10.4 mph 16.1 mph N/A   Clear
5:35 PM 50.9 °F - 21.7 °F 32% 29.99 in 10.0 mi SSW 10.4 mph 19.6 mph N/A   Clear
5:55 PM 50.4 °F - 21.7 °F 33% 29.98 in 10.0 mi SSW 10.4 mph 19.6 mph N/A   Clear
6:15 PM 50.0 °F - 21.7 °F 33% 29.97 in 10.0 mi SSW 9.2 mph 19.6 mph N/A   Clear
6:35 PM 49.1 °F - 21.9 °F 34% 29.97 in 10.0 mi SSW 8.1 mph - N/A   Clear
6:55 PM 48.4 °F - 22.3 °F 36% 29.97 in 10.0 mi SSW 8.1 mph - N/A   Clear
7:15 PM 47.1 °F - 22.8 °F 38% 29.97 in 10.0 mi South 9.2 mph - N/A   Clear
7:35 PM 46.9 °F - 23.2 °F 39% 29.96 in 10.0 mi SSW 8.1 mph - N/A   Clear
7:55 PM 46.6 °F - 23.7 °F 41% 29.95 in 10.0 mi SSW 9.2 mph 16.1 mph N/A   Clear
8:15 PM 46.6 °F - 23.7 °F 41% 29.95 in 10.0 mi SSW 9.2 mph - N/A   Clear
8:35 PM 47.3 °F - 23.5 °F 39% 29.94 in 10.0 mi SW 9.2 mph 18.4 mph N/A   Clear
8:55 PM 46.8 °F - 23.5 °F 40% 29.94 in 10.0 mi SSW 11.5 mph - N/A   Clear
9:15 PM 46.4 °F 41.1 °F 23.7 °F 41% 29.94 in 10.0 mi SSW 11.5 mph 18.4 mph N/A   Clear
9:35 PM 46.4 °F 42.4 °F 23.9 °F 41% 29.94 in 10.0 mi SSW 8.1 mph 16.1 mph N/A   Clear
9:55 PM 46.0 °F 41.0 °F 24.6 °F 43% 29.95 in 10.0 mi SW 10.4 mph - N/A   Clear
10:15 PM 46.2 °F 41.2 °F 24.6 °F 43% 29.94 in 10.0 mi SW 10.4 mph 18.4 mph N/A   Clear
10:35 PM 45.7 °F 40.6 °F 25.0 °F 44% 29.94 in 10.0 mi SSW 10.4 mph 16.1 mph N/A   Clear
10:55 PM 45.5 °F 40.8 °F 25.3 °F 45% 29.94 in 10.0 mi SSW 9.2 mph 16.1 mph N/A   Clear
11:15 PM 44.8 °F 39.9 °F 25.5 °F 47% 29.94 in 10.0 mi SSW 9.2 mph - N/A   Clear
11:35 PM 45.0 °F 40.6 °F 25.7 °F 47% 29.93 in 10.0 mi SW 8.1 mph - N/A   Clear
11:55 PM 44.8 °F 39.9 °F 26.1 °F 48% 29.93 in 10.0 mi SW 9.2 mph 16.1 mph N/A   Clear